Weather History for Newton, KS

Change the Weather History Date:

Wednesday, May 22, 2013

  Actual Average Record
Temperature  
Mean Temperature 62 °F -  
Max Temperature 73 °F 74 °F 91 °F (2000)
Min Temperature 50 °F 53 °F 42 °F (2001)
Degree Days  
Heating Degree Days 4    
Growing Degree Days 12 (Base 50)    
Moisture  
Dew Point 49 °F    
Average Humidity 66    
Maximum Humidity 82    
Minimum Humidity 47    
Precipitation  
Precipitation 0.00 in - - ()
Sea Level Pressure  
Sea Level Pressure 29.90 in    
Wind  
Wind Speed 8 mph (NNW)    
Max Wind Speed 20 mph    
Max Gust Speed 23 mph    
Visibility 10 miles    
Events      
Averages and records for this station are not official NWS values.
T = Trace of Precipitation, MM = Missing Value Source: NWS Daily Summary

Daily Weather History Graph

Daily Weather History Graph

Search for Another Location

Airport:

Trip Planner

Search our weather history database for the weather conditions in past years. The results will help you decide how hot, cold, wet, or windy it might be!

Date:

Astronomy

May. 22, 2013 Rise Set
Actual Time 6:13 AM CDT 8:38 PM CDT
Civil Twilight 5:42 AM CDT 9:09 PM CDT
Nautical Twilight 5:05 AM CDT 9:46 PM CDT
Astronomical Twilight 4:24 AM CDT 10:27 PM CDT
Moon 6:04 PM CDT (5/22) 4:15 AM CDT (5/22)
Length of Visible Light 15h 26m
Length of Day
14h 25m
Waxing Gibbous, 91% of the Moon is Illuminated
May 22
Waxing Gibbous
May 24
Full
May 31
Last Quarter
Jun 8
New
Jun 16
First Quarter

Hourly Weather History & Observations

Time (CDT) Temp. Dew Point Humidity Pressure Visibility Wind Dir Wind Speed Gust Speed Precip Events Conditions
12:15 AM 55.4 °F 46.4 °F 72% 29.84 in 10.0 mi NNW 5.8 mph - N/A   Clear
12:35 AM 53.6 °F 46.4 °F 77% 29.84 in 10.0 mi NW 5.8 mph - N/A   Clear
12:55 AM 53.6 °F 46.4 °F 77% 29.84 in 10.0 mi NW 3.5 mph - N/A   Mostly Cloudy
1:15 AM 55.4 °F 46.4 °F 72% 29.84 in 10.0 mi WNW 4.6 mph - N/A   Overcast
1:35 AM 55.4 °F 46.4 °F 72% 29.84 in 10.0 mi West 3.5 mph - N/A   Overcast
1:55 AM 55.4 °F 46.4 °F 72% 29.84 in 10.0 mi WNW 4.6 mph - N/A   Partly Cloudy
2:15 AM 53.6 °F 46.4 °F 77% 29.84 in 10.0 mi WNW 6.9 mph - N/A   Clear
2:35 AM 55.4 °F 46.4 °F 72% 29.84 in 10.0 mi WNW 6.9 mph - N/A   Clear
2:55 AM 53.6 °F 46.4 °F 77% 29.84 in 10.0 mi NW 8.1 mph - N/A   Clear
3:15 AM 53.6 °F 46.4 °F 77% 29.84 in 10.0 mi NW 8.1 mph - N/A   Clear
3:35 AM 53.6 °F 46.4 °F 77% 29.84 in 10.0 mi NNW 6.9 mph - N/A   Clear
3:55 AM 51.8 °F 46.4 °F 82% 29.85 in 10.0 mi NW 8.1 mph - N/A   Partly Cloudy
4:15 AM 51.8 °F 46.4 °F 82% 29.85 in 10.0 mi NW 8.1 mph - N/A   Partly Cloudy
4:35 AM 51.8 °F 46.4 °F 82% 29.86 in 10.0 mi NW 8.1 mph - N/A   Clear
4:55 AM 51.8 °F 46.4 °F 82% 29.86 in 10.0 mi NW 6.9 mph - N/A   Clear
5:15 AM 51.8 °F 46.4 °F 82% 29.87 in 10.0 mi NW 9.2 mph - N/A   Clear
5:35 AM 51.8 °F 46.4 °F 82% 29.87 in 10.0 mi NW 8.1 mph - N/A   Clear
5:55 AM 51.8 °F 46.4 °F 82% 29.87 in 10.0 mi NW 6.9 mph - N/A   Clear
6:15 AM 50.0 °F 44.6 °F 82% 29.87 in 10.0 mi NNW 9.2 mph - N/A   Clear
6:35 AM 50.0 °F 44.6 °F 82% 29.87 in 10.0 mi NNW 9.2 mph - N/A   Clear
6:55 AM 50.0 °F 44.6 °F 82% 29.88 in 10.0 mi NW 8.1 mph - N/A   Clear
7:15 AM 51.8 °F 44.6 °F 76% 29.88 in 10.0 mi NNW 9.2 mph - N/A   Clear
7:35 AM 51.8 °F 46.4 °F 82% 29.89 in 10.0 mi NNW 10.4 mph - N/A   Clear
7:55 AM 53.6 °F 46.4 °F 77% 29.90 in 10.0 mi NW 12.7 mph 16.1 mph N/A   Clear
8:15 AM 53.6 °F 46.4 °F 77% 29.90 in 10.0 mi NNW 12.7 mph - N/A   Clear
8:35 AM 55.4 °F 46.4 °F 72% 29.90 in 10.0 mi NW 13.8 mph 18.4 mph N/A   Clear
8:55 AM 55.4 °F 46.4 °F 72% 29.91 in 10.0 mi NW 16.1 mph - N/A   Clear
9:15 AM 55.4 °F 46.4 °F 72% 29.91 in 8.0 mi NNW 17.3 mph 23.0 mph N/A   Clear
9:35 AM 57.2 °F 46.4 °F 67% 29.91 in 10.0 mi NNW 13.8 mph 20.7 mph N/A   Clear
9:55 AM 57.2 °F 46.4 °F 67% 29.91 in 10.0 mi NW 19.6 mph 23.0 mph N/A   Clear
10:15 AM 59.0 °F 46.4 °F 63% 29.92 in 10.0 mi NW 13.8 mph 23.0 mph N/A   Clear
10:35 AM 60.8 °F 46.4 °F 59% 29.92 in 10.0 mi NW 16.1 mph 21.9 mph N/A   Clear
10:55 AM 60.8 °F 46.4 °F 59% 29.92 in 10.0 mi WNW 11.5 mph - N/A   Clear
11:15 AM 62.6 °F 48.2 °F 59% 29.93 in 10.0 mi NW 15.0 mph - N/A   Clear
11:35 AM 62.6 °F 48.2 °F 59% 29.93 in 10.0 mi NNW 10.4 mph 20.7 mph N/A   Clear
11:55 AM 64.4 °F 50.0 °F 59% 29.93 in 10.0 mi WNW 11.5 mph 18.4 mph N/A   Partly Cloudy
12:15 PM 64.4 °F 50.0 °F 59% 29.93 in 10.0 mi WNW 10.4 mph - N/A   Partly Cloudy
12:35 PM 64.4 °F 50.0 °F 59% 29.93 in 10.0 mi WNW 10.4 mph - N/A   Partly Cloudy
12:55 PM 66.2 °F 51.8 °F 60% 29.93 in 10.0 mi WNW 12.7 mph 19.6 mph N/A   Partly Cloudy
1:15 PM 66.2 °F 51.8 °F 60% 29.93 in 10.0 mi WNW 10.4 mph - N/A   Partly Cloudy
1:35 PM 66.2 °F 51.8 °F 60% 29.92 in 10.0 mi NW 12.7 mph 17.3 mph N/A   Partly Cloudy
1:55 PM 68.0 °F 51.8 °F 56% 29.92 in 10.0 mi NW 12.7 mph - N/A   Clear
2:15 PM 68.0 °F 51.8 °F 56% 29.92 in 10.0 mi WNW 10.4 mph - N/A   Clear
2:35 PM 69.8 °F 51.8 °F 53% 29.91 in 10.0 mi WNW 15.0 mph 18.4 mph N/A   Clear
2:55 PM 69.8 °F 51.8 °F 53% 29.91 in 10.0 mi NW 8.1 mph 18.4 mph N/A   Clear
3:15 PM 69.8 °F 53.6 °F 56% 29.90 in 10.0 mi NNW 9.2 mph - N/A   Partly Cloudy
3:35 PM 71.6 °F 51.8 °F 50% 29.90 in 10.0 mi NW 4.6 mph - N/A   Clear
3:55 PM 71.6 °F 53.6 °F 53% 29.89 in 10.0 mi NW 10.4 mph 16.1 mph N/A   Clear
4:15 PM 71.6 °F 51.8 °F 50% 29.89 in 10.0 mi NNW 8.1 mph - N/A   Clear
4:35 PM 71.6 °F 51.8 °F 50% 29.89 in 10.0 mi NW 9.2 mph - N/A   Clear
4:55 PM 73.4 °F 51.8 °F 47% 29.89 in 10.0 mi NW 8.1 mph - N/A   Clear
5:15 PM 73.4 °F 51.8 °F 47% 29.89 in 10.0 mi NW 5.8 mph - N/A   Clear
5:35 PM 71.6 °F 51.8 °F 50% 29.89 in 10.0 mi NNW 9.2 mph - N/A   Clear
5:55 PM 71.6 °F 51.8 °F 50% 29.89 in 10.0 mi NW 8.1 mph - N/A   Clear
6:15 PM 71.6 °F 51.8 °F 50% 29.89 in 10.0 mi NNW 9.2 mph - N/A   Clear
6:35 PM 71.6 °F 51.8 °F 50% 29.90 in 10.0 mi NNW 5.8 mph - N/A   Clear
6:55 PM 71.6 °F 51.8 °F 50% 29.91 in 10.0 mi North 5.8 mph - N/A   Clear
7:15 PM 71.6 °F 51.8 °F 50% 29.91 in 10.0 mi NNW 4.6 mph - N/A   Clear
7:35 PM 69.8 °F 53.6 °F 56% 29.92 in 10.0 mi North 3.5 mph - N/A   Clear
7:55 PM 69.8 °F 53.6 °F 56% 29.92 in 10.0 mi NNE 5.8 mph - N/A   Clear
8:15 PM 68.0 °F 53.6 °F 60% 29.93 in 10.0 mi NE 3.5 mph - N/A   Clear
8:35 PM 66.2 °F 51.8 °F 60% 29.93 in 10.0 mi ENE 3.5 mph - N/A   Clear
8:55 PM 66.2 °F 51.8 °F 60% 29.93 in 10.0 mi ENE 4.6 mph - N/A   Clear
9:15 PM 64.4 °F 51.8 °F 64% 29.94 in 10.0 mi NE 5.8 mph - N/A   Clear
9:35 PM 60.8 °F 51.8 °F 72% 29.95 in 10.0 mi East 3.5 mph - N/A   Clear
9:55 PM 60.8 °F 51.8 °F 72% 29.95 in 10.0 mi East 4.6 mph - N/A   Clear
10:15 PM 60.8 °F 51.8 °F 72% 29.96 in 10.0 mi ESE 4.6 mph - N/A   Clear
10:35 PM 60.8 °F 51.8 °F 72% 29.97 in 10.0 mi East 4.6 mph - N/A   Clear
10:55 PM 59.0 °F 51.8 °F 77% 29.97 in 10.0 mi East 4.6 mph - N/A   Clear
11:15 PM 59.0 °F 51.8 °F 77% 29.97 in 10.0 mi East 4.6 mph - N/A   Clear
11:35 PM 59.0 °F 51.8 °F 77% 29.97 in 10.0 mi ENE 4.6 mph - N/A   Clear
11:55 PM 59.0 °F 51.8 °F 77% 29.98 in 10.0 mi ENE 4.6 mph - N/A   Clear